This is the latest recevied weather packets stored in our database for station/object K1BES. If no packets are shown the sender has not sent any weather packets the latest 10 day(s).
| Time | Temp. | Humidity | Pressure | Rain* | Wind** | Luminosity | Snow |
|---|---|---|---|---|---|---|---|
| 1778101265 | 28.89° C | 74% | 1017.4 hPa | 0 mm | - | 432 W/m² | - |
| 1778100962 | 28.89° C | 72% | 1017.7 hPa | 0 mm | - | 584 W/m² | - |
| 1778100657 | 28.89° C | 72% | 1017.5 hPa | 0 mm | - | 371 W/m² | - |
| 1778100355 | 28.33° C | 74% | 1017.3 hPa | 0 mm | - | 193 W/m² | - |
| 1778100052 | 28.33° C | 73% | 1017.4 hPa | 0 mm | - | 644 W/m² | - |
| 1778099750 | 28.33° C | 74% | 1017.5 hPa | 0 mm | - | 334 W/m² | - |
| 1778099446 | 28.33° C | 76% | 1017.4 hPa | 0 mm | - | 114 W/m² | - |
| 1778099144 | 28.33° C | 75% | 1017.4 hPa | 0 mm | - | 118 W/m² | - |
| 1778098840 | 28.33° C | 77% | 1017.7 hPa | 0 mm | - | 92 W/m² | - |
| 1778098538 | 28.33° C | 76% | 1017.5 hPa | 0 mm | - | 101 W/m² | - |
| 1778098234 | 28.89° C | 76% | 1017.6 hPa | 0 mm | - | 139 W/m² | - |
| 1778097930 | 28.89° C | 76% | 1017.5 hPa | 0 mm | - | 137 W/m² | - |
| 1778097627 | 28.89° C | 77% | 1017.6 hPa | 0 mm | - | 798 W/m² | - |
| 1778097324 | 28.89° C | 76% | 1017.7 hPa | 0 mm | - | 795 W/m² | - |
| 1778097020 | 28.89° C | 77% | 1017.8 hPa | 0 mm | - | 837 W/m² | - |
| 1778096718 | 28.89° C | 77% | 1017.7 hPa | 0 mm | - | 680 W/m² | - |
| 1778096414 | 28.89° C | 76% | 1017.9 hPa | 0 mm | - | 674 W/m² | - |
| 1778096112 | 28.89° C | 77% | 1018 hPa | 0 mm | - | 853 W/m² | - |
| 1778095809 | 29.44° C | 76% | 1018 hPa | 0 mm | - | 857 W/m² | - |
| 1778095505 | 29.44° C | 75% | 1017.9 hPa | 0 mm | - | 897 W/m² | - |
| 1778095201 | 29.44° C | 75% | 1018.2 hPa | 0 mm | - | 904 W/m² | - |
| 1778094898 | 28.89° C | 75% | 1018.2 hPa | 0 mm | - | 912 W/m² | - |
| 1778094595 | 29.44° C | 76% | 1018.1 hPa | 0 mm | - | 930 W/m² | - |
| 1778094292 | 28.89° C | 75% | 1018.3 hPa | 0 mm | - | 952 W/m² | - |
| 1778093988 | 30° C | 74% | 1018.2 hPa | 0 mm | - | 972 W/m² | - |
* Rain latest hour (hover to see other rain measurements)
** Current wind speed in m/s (hover to see current wind gust speed)